Terminal Aerodrome Forecast
Issued by NWS St Louis, MO

Home | Current Version | Previous Version | Text Only | Print | Product List | Glossary On
Versions: 1 2 3 4 5 6 7 8 9 10 11 12 13 14 15 16 17 18 19 20 21 22 23 24 25 26 27 28 29 30 31 32
000
FTUS43 KLSX 171100
TAFSTL
TAF
KSTL 171135Z 1712/1818 30007KT P6SM OVC020
     FM171400 30007KT P6SM BKN100
     FM180000 VRB04KT P6SM OVC080
     FM181000 08004KT 6SM -SN OVC040
     FM181400 09004KT 1SM -SN BR OVC012=

USA.gov is the U.S. government's official web portal to all federal, state and local government web resources and services.